When you browse on this site, cookies collect data to enhance your experience and personalize the content and advertising you see.
Visit our Privacy Policy to learn more. By continuing to use the site, you agree to this use of cookies and data.
  • In Schweiz
  • Länderverzeichnis
  • Für 7 Tage
  • Wassertemperatur
  • Wetterkarte
  • Widgets
  • user-avatar
    Anmelden

    Stündliche Wetter Baku

    Heute, 1 Juni, Montag

    Zeit Temperatur Niederschläge Wind Luftdruck Luftfeuchtigkeit
    00:00 +19°C° 0 mm 10 m/S 759 mmHg 61%
    01:00 +19°C° 0 mm 9 m/S 759 mmHg 61%
    02:00 +19°C° 0 mm 9 m/S 758 mmHg 61%
    03:00 +20°C° 0 mm 8 m/S 758 mmHg 62%
    04:00 +20°C° 0 mm 7 m/S 758 mmHg 59%
    05:00 +20°C° 0 mm 7 m/S 758 mmHg 57%
    06:00 +21°C° 0 mm 6 m/S 758 mmHg 54%
    07:00 +22°C° 0 mm 6 m/S 758 mmHg 51%
    08:00 +23°C° 0 mm 5 m/S 758 mmHg 48%
    09:00 +23°C° 0 mm 4 m/S 758 mmHg 44%
    10:00 +25°C° 0 mm 4 m/S 758 mmHg 43%
    11:00 +26°C° 0 mm 3 m/S 758 mmHg 41%
    12:00 +26°C° 0 mm 3 m/S 757 mmHg 39%
    13:00 +27°C° 0 mm 3 m/S 757 mmHg 39%
    14:00 +28°C° 0 mm 4 m/S 756 mmHg 39%
    15:00 +28°C° 0 mm 5 m/S 756 mmHg 39%
    16:00 +28°C° 0 mm 6 m/S 756 mmHg 40%
    17:00 +27°C° 0 mm 7 m/S 755 mmHg 41%
    18:00 +26°C° 0 mm 7 m/S 755 mmHg 42%
    19:00 +26°C° 0 mm 7 m/S 755 mmHg 46%
    20:00 +24°C° 0 mm 7 m/S 755 mmHg 49%
    21:00 +23°C° 0 mm 6 m/S 755 mmHg 52%
    22:00 +23°C° 0 mm 6 m/S 755 mmHg 54%
    23:00 +23°C° 0 mm 6 m/S 755 mmHg 55%

    Morgen, 2 Juni, Dienstag

    Zeit Temperatur Niederschläge Wind Luftdruck Luftfeuchtigkeit
    00:00 +22°C° 0 mm 5 m/S 754 mmHg 56%
    01:00 +22°C° 0 mm 5 m/S 754 mmHg 56%
    02:00 +22°C° 0 mm 4 m/S 754 mmHg 57%
    03:00 +22°C° 0 mm 4 m/S 754 mmHg 58%
    04:00 +22°C° 0 mm 4 m/S 754 mmHg 58%
    05:00 +22°C° 0 mm 3 m/S 754 mmHg 58%
    06:00 +22°C° 0 mm 3 m/S 754 mmHg 58%
    07:00 +23°C° 0 mm 4 m/S 754 mmHg 55%
    08:00 +26°C° 0 mm 4 m/S 754 mmHg 52%
    09:00 +27°C° 0 mm 4 m/S 754 mmHg 48%
    10:00 +28°C° 0 mm 5 m/S 754 mmHg 47%
    11:00 +28°C° 0 mm 6 m/S 754 mmHg 45%
    12:00 +29°C° 0 mm 6 m/S 754 mmHg 44%
    13:00 +29°C° 0 mm 6 m/S 753 mmHg 44%
    14:00 +28°C° 0 mm 7 m/S 752 mmHg 44%
    15:00 +28°C° 0 mm 7 m/S 752 mmHg 44%
    16:00 +27°C° 0 mm 7 m/S 752 mmHg 46%
    17:00 +27°C° 0 mm 7 m/S 752 mmHg 49%
    18:00 +26°C° 0 mm 7 m/S 752 mmHg 52%
    19:00 +26°C° 0 mm 5 m/S 752 mmHg 52%
    20:00 +26°C° 0 mm 3 m/S 752 mmHg 52%
    21:00 +25°C° 0 mm 1 m/S 752 mmHg 52%
    22:00 +25°C° 0 mm 2 m/S 752 mmHg 54%
    23:00 +25°C° 0 mm 2 m/S 751 mmHg 55%

    übermorgen, 3 Juni, Mittwoch

    Zeit Temperatur Niederschläge Wind Luftdruck Luftfeuchtigkeit
    00:00 +24°C° 0 mm 2 m/S 751 mmHg 57%
    01:00 +24°C° 0 mm 2 m/S 751 mmHg 57%
    02:00 +24°C° 0 mm 2 m/S 751 mmHg 57%
    03:00 +24°C° 0 mm 1 m/S 751 mmHg 57%
    04:00 +24°C° 0 mm 2 m/S 751 mmHg 57%
    05:00 +24°C° 0 mm 3 m/S 751 mmHg 58%
    06:00 +23°C° 0 mm 4 m/S 751 mmHg 58%
    07:00 +26°C° 0 mm 4 m/S 751 mmHg 54%
    08:00 +27°C° 0 mm 5 m/S 751 mmHg 51%
    09:00 +28°C° 0 mm 5 m/S 751 mmHg 47%
    10:00 +29°C° 0 mm 5 m/S 751 mmHg 45%
    11:00 +30°C° 0 mm 6 m/S 751 mmHg 42%
    12:00 +32°C° 0 mm 6 m/S 751 mmHg 40%
    13:00 +30°C° 0 mm 6 m/S 751 mmHg 42%
    14:00 +29°C° 0 mm 6 m/S 750 mmHg 45%
    15:00 +28°C° 0 mm 7 m/S 750 mmHg 47%
    16:00 +27°C° 0 mm 7 m/S 750 mmHg 49%
    17:00 +26°C° 0 mm 6 m/S 751 mmHg 52%
    18:00 +24°C° 0 mm 6 m/S 751 mmHg 54%
    19:00 +25°C° 0 mm 5 m/S 751 mmHg 54%
    20:00 +25°C° 0 mm 4 m/S 752 mmHg 54%
    21:00 +25°C° 0 mm 3 m/S 752 mmHg 54%
    22:00 +25°C° 0 mm 2 m/S 752 mmHg 54%
    23:00 +25°C° 0 mm 2 m/S 753 mmHg 55%

    4 Juni, Donnerstag

    Zeit Temperatur Niederschläge Wind Luftdruck Luftfeuchtigkeit
    00:00 +25°C° 0 mm 1 m/S 753 mmHg 56%
    01:00 +24°C° 0 mm 2 m/S 753 mmHg 57%
    02:00 +24°C° 0 mm 2 m/S 753 mmHg 59%
    03:00 +24°C° 0 mm 2 m/S 754 mmHg 60%
    04:00 +23°C° 0 mm 6 m/S 754 mmHg 65%
    05:00 +22°C° 0 mm 9 m/S 755 mmHg 70%
    06:00 +22°C° 0 mm 12 m/S 756 mmHg 74%
    07:00 +23°C° 0 mm 12 m/S 756 mmHg 71%
    08:00 +23°C° 0 mm 12 m/S 757 mmHg 68%
    09:00 +24°C° 0 mm 13 m/S 757 mmHg 65%
    10:00 +24°C° 0 mm 12 m/S 757 mmHg 63%
    11:00 +24°C° 0 mm 11 m/S 757 mmHg 62%
    12:00 +26°C° 0 mm 10 m/S 758 mmHg 60%
    13:00 +24°C° 0 mm 10 m/S 757 mmHg 60%
    14:00 +24°C° 0 mm 9 m/S 757 mmHg 59%
    15:00 +24°C° 0 mm 8 m/S 757 mmHg 59%
    16:00 +24°C° 0 mm 8 m/S 757 mmHg 62%
    17:00 +23°C° 0 mm 7 m/S 757 mmHg 64%
    18:00 +22°C° 0 mm 6 m/S 757 mmHg 67%
    19:00 +22°C° 0 mm 6 m/S 757 mmHg 67%
    20:00 +22°C° 0 mm 5 m/S 757 mmHg 67%
    21:00 +22°C° 0 mm 4 m/S 757 mmHg 68%
    22:00 +22°C° 0 mm 4 m/S 757 mmHg 67%
    23:00 +22°C° 0 mm 3 m/S 757 mmHg 66%

    5 Juni, Freitag

    Zeit Temperatur Niederschläge Wind Luftdruck Luftfeuchtigkeit
    00:00 +22°C° 0 mm 3 m/S 757 mmHg 65%
    01:00 +21°C° 0 mm 3 m/S 757 mmHg 66%
    02:00 +21°C° 0 mm 3 m/S 757 mmHg 67%
    03:00 +21°C° 0 mm 3 m/S 757 mmHg 67%
    04:00 +21°C° 0 mm 3 m/S 757 mmHg 66%
    05:00 +21°C° 0 mm 3 m/S 757 mmHg 64%
    06:00 +22°C° 0 mm 3 m/S 758 mmHg 63%
    07:00 +24°C° 0 mm 3 m/S 758 mmHg 59%
    08:00 +25°C° 0 mm 3 m/S 758 mmHg 55%
    09:00 +26°C° 0 mm 3 m/S 759 mmHg 51%
    10:00 +26°C° 0 mm 5 m/S 759 mmHg 50%
    11:00 +26°C° 0 mm 7 m/S 759 mmHg 49%
    12:00 +26°C° 0 mm 9 m/S 759 mmHg 47%
    13:00 +26°C° 0 mm 10 m/S 759 mmHg 50%
    14:00 +26°C° 0 mm 11 m/S 759 mmHg 52%
    15:00 +24°C° 0 mm 12 m/S 759 mmHg 54%
    16:00 +24°C° 0 mm 12 m/S 759 mmHg 58%
    17:00 +23°C° 0 mm 12 m/S 760 mmHg 62%
    18:00 +22°C° 0 mm 12 m/S 760 mmHg 65%
    19:00 +22°C° 0 mm 12 m/S 761 mmHg 65%
    20:00 +22°C° 0 mm 12 m/S 761 mmHg 65%
    21:00 +22°C° 0 mm 12 m/S 762 mmHg 65%
    22:00 +22°C° 0 mm 12 m/S 762 mmHg 66%
    23:00 +22°C° 0 mm 12 m/S 762 mmHg 68%

    6 Juni, Samstag

    Zeit Temperatur Niederschläge Wind Luftdruck Luftfeuchtigkeit
    00:00 +21°C° 0 mm 12 m/S 762 mmHg 70%
    01:00 +21°C° 0 mm 12 m/S 762 mmHg 71%
    02:00 +21°C° 0 mm 11 m/S 762 mmHg 72%
    03:00 +21°C° 0 mm 11 m/S 762 mmHg 73%
    04:00 +21°C° 0 mm 9 m/S 762 mmHg 72%
    05:00 +21°C° 0 mm 8 m/S 762 mmHg 72%
    06:00 +21°C° 0 mm 7 m/S 762 mmHg 71%
    07:00 +22°C° 0 mm 7 m/S 762 mmHg 67%
    08:00 +23°C° 0 mm 6 m/S 762 mmHg 62%
    09:00 +23°C° 0 mm 6 m/S 763 mmHg 57%
    10:00 +25°C° 0 mm 5 m/S 762 mmHg 55%
    11:00 +25°C° 0 mm 5 m/S 762 mmHg 52%
    12:00 +26°C° 0 mm 5 m/S 762 mmHg 49%
    13:00 +26°C° 0 mm 5 m/S 762 mmHg 49%
    14:00 +26°C° 0 mm 5 m/S 761 mmHg 48%
    15:00 +26°C° 0 mm 5 m/S 761 mmHg 47%
    16:00 +26°C° 0 mm 5 m/S 761 mmHg 50%
    17:00 +24°C° 0 mm 6 m/S 760 mmHg 52%
    18:00 +23°C° 0 mm 6 m/S 760 mmHg 55%
    19:00 +23°C° 0 mm 6 m/S 761 mmHg 56%
    20:00 +23°C° 0 mm 6 m/S 761 mmHg 57%
    21:00 +22°C° 0 mm 5 m/S 761 mmHg 58%
    22:00 +22°C° 0 mm 5 m/S 761 mmHg 59%
    23:00 +22°C° 0 mm 4 m/S 761 mmHg 60%
    Mehr zeigen